| time (UTC) | temp F | wind direction | speed MPH | gust MPH | rain 1hr in | rain 24hr in | rain mn in | humidity % | barometer mb |
| 20260509151008 | 61 | 170 | 5.0 | 10.0 | 0.00 | 0.07 | 0.00 | 79 | 1004.7 |
| 20260509150444 | 61 | 165 | 3.0 | 9.0 | 0.00 | 0.07 | 0.00 | 81 | 1004.8 |
| 20260509150218 | 60 | 186 | 2.0 | 9.0 | 0.00 | 0.07 | 0.00 | 84 | 1004.9 |
| 20260509145427 | 59 | 201 | 1.0 | 4.0 | 0.00 | 0.07 | 0.00 | 85 | 1004.9 |
| 20260509144930 | 59 | 199 | 0.0 | 3.0 | 0.00 | 0.07 | 0.00 | 86 | 1004.8 |
| 20260509144419 | 58 | 198 | 0.0 | 2.0 | 0.00 | 0.07 | 0.00 | 87 | 1004.8 |
| 20260509143910 | 58 | 198 | 1.0 | 3.0 | 0.00 | 0.07 | 0.00 | 88 | 1004.9 |
| 20260509143346 | 58 | 198 | 1.0 | 4.0 | 0.00 | 0.07 | 0.00 | 88 | 1004.9 |
| 20260509142819 | 57 | 195 | 1.0 | 4.0 | 0.00 | 0.07 | 0.00 | 87 | 1004.9 |
| 20260509142322 | 57 | 175 | 1.0 | 2.0 | 0.00 | 0.07 | 0.00 | 88 | 1004.8 |
| 20260509141758 | 57 | 175 | 1.0 | 3.0 | 0.00 | 0.07 | 0.00 | 90 | 1004.8 |
| 20260509141258 | 57 | 175 | 0.0 | 3.0 | 0.00 | 0.07 | 0.00 | 90 | 1004.8 |
| 20260509140752 | 57 | 175 | 2.0 | 7.0 | 0.00 | 0.07 | 0.00 | 90 | 1004.7 |
| 20260509140257 | 56 | 174 | 3.0 | 7.0 | 0.00 | 0.07 | 0.00 | 90 | 1004.7 |
| 20260509135720 | 56 | 172 | 2.0 | 7.0 | 0.00 | 0.07 | 0.00 | 92 | 1004.7 |
| 20260509135245 | 56 | 159 | 2.0 | 5.0 | 0.00 | 0.07 | 0.00 | 93 | 1004.8 |
| 20260509134152 | 55 | 192 | 1.0 | 5.0 | 0.00 | 0.07 | 0.00 | 95 | 1004.7 |
| 20260509133652 | 55 | 190 | 1.0 | 5.0 | 0.00 | 0.07 | 0.00 | 95 | 1004.7 |
| 20260509133152 | 55 | 170 | 1.0 | 4.0 | 0.00 | 0.07 | 0.00 | 95 | 1004.7 |
| 20260509132638 | 54 | 170 | 2.0 | 7.0 | 0.00 | 0.07 | 0.00 | 95 | 1004.7 |
| 20260509132334 | 54 | 182 | 1.0 | 7.0 | 0.00 | 0.07 | 0.00 | 95 | 1004.7 |
| 20260509131545 | 54 | 180 | 1.0 | 4.0 | 0.00 | 0.07 | 0.00 | 95 | 1004.8 |
| 20260509131046 | 54 | 178 | 2.0 | 4.0 | 0.00 | 0.07 | 0.00 | 95 | 1004.7 |
| 20260509130456 | 54 | 178 | 2.0 | 4.0 | 0.00 | 0.07 | 0.00 | 96 | 1004.7 |
| 20260509125927 | 54 | 178 | 2.0 | 4.0 | 0.00 | 0.07 | 0.00 | 96 | 1004.8 |
| 20260509125425 | 54 | 179 | 1.0 | 4.0 | 0.00 | 0.07 | 0.00 | 96 | 1004.8 |
| 20260509124852 | 54 | 178 | 1.0 | 5.0 | 0.00 | 0.07 | 0.00 | 96 | 1004.7 |
| 20260509124842 | 54 | 178 | 3.0 | 6.0 | 0.00 | 0.07 | 0.00 | 96 | 1004.7 |
| 20260509123818 | 54 | 178 | 2.0 | 5.0 | 0.00 | 0.07 | 0.00 | 96 | 1004.9 |
| 20260509123245 | 53 | 176 | 2.0 | 5.0 | 0.00 | 0.07 | 0.00 | 97 | 1004.9 |
| 20260509122747 | 53 | 176 | 2.0 | 5.0 | 0.00 | 0.07 | 0.00 | 97 | 1004.9 |
| 20260509122155 | 53 | 176 | 2.0 | 5.0 | 0.00 | 0.07 | 0.00 | 97 | 1005.0 |
| 20260509121650 | 53 | 176 | 3.0 | 5.0 | 0.00 | 0.07 | 0.00 | 97 | 1004.9 |
| 20260509121150 | 53 | 176 | 3.0 | 5.0 | 0.00 | 0.07 | 0.00 | 97 | 1005.0 |
| 20260509120619 | 53 | 176 | 3.0 | 6.0 | 0.00 | 0.07 | 0.00 | 97 | 1005.1 |
| 20260509120114 | 53 | 175 | 3.0 | 6.0 | 0.00 | 0.07 | 0.00 | 97 | 1005.0 |
| 20260509115559 | 53 | 175 | 3.0 | 6.0 | 0.00 | 0.07 | 0.00 | 97 | 1005.1 |
| 20260509115104 | 53 | 176 | 3.0 | 6.0 | 0.00 | 0.07 | 0.00 | 97 | 1005.1 |
| 20260509114637 | 52 | 176 | 3.0 | 5.0 | 0.00 | 0.07 | 0.00 | 97 | 1005.1 |
| 20260509113530 | 52 | 176 | 3.0 | 5.0 | 0.00 | 0.07 | 0.00 | 97 | 1005.1 |
| 20260509113031 | 52 | 176 | 2.0 | 5.0 | 0.00 | 0.07 | 0.00 | 97 | 1005.1 |
| 20260509112725 | 52 | 176 | 2.0 | 3.0 | 0.00 | 0.07 | 0.00 | 97 | 1005.0 |
| 20260509111956 | 52 | 175 | 1.0 | 3.0 | 0.00 | 0.07 | 0.00 | 97 | 1004.9 |
| 20260509111431 | 52 | 175 | 0.0 | 3.0 | 0.00 | 0.07 | 0.00 | 97 | 1004.9 |
| 20260509110927 | 52 | 175 | 1.0 | 3.0 | 0.00 | 0.07 | 0.00 | 97 | 1004.8 |
| 20260509110409 | 52 | 175 | 2.0 | 4.0 | 0.00 | 0.07 | 0.00 | 97 | 1004.7 |
| 20260509110130 | 52 | 175 | 2.0 | 4.0 | 0.00 | 0.07 | 0.00 | 97 | 1004.7 |
| 20260509105354 | 52 | 175 | 2.0 | 3.0 | 0.00 | 0.07 | 0.00 | 97 | 1004.8 |
| 20260509104857 | 52 | 175 | 1.0 | 3.0 | 0.00 | 0.07 | 0.00 | 97 | 1004.7 |
| 20260509104333 | 52 | 175 | 1.0 | 3.0 | 0.00 | 0.07 | 0.00 | 97 | 1004.7 |
| 20260509103828 | 52 | 175 | 0.0 | 3.0 | 0.00 | 0.07 | 0.00 | 97 | 1004.8 |
| 20260509103527 | 52 | 175 | 0.0 | 0.0 | 0.00 | 0.07 | 0.00 | 97 | 1004.8 |
| 20260509103032 | 52 | 175 | 0.0 | 0.0 | 0.00 | 0.07 | 0.00 | 97 | 1004.9 |
| 20260509102252 | 52 | 175 | 0.0 | 0.0 | 0.00 | 0.07 | 0.00 | 97 | 1004.8 |
| 20260509101741 | 52 | 175 | 0.0 | 0.0 | 0.00 | 0.07 | 0.00 | 97 | 1004.8 |
| 20260509101222 | 52 | 175 | 1.0 | 3.0 | 0.00 | 0.07 | 0.00 | 97 | 1004.8 |
| 20260509100717 | 52 | 175 | 2.0 | 3.0 | 0.00 | 0.07 | 0.00 | 97 | 1004.9 |
| 20260509100218 | 52 | 175 | 2.0 | 3.0 | 0.00 | 0.07 | 0.00 | 97 | 1004.9 |
| 20260509095704 | 52 | 175 | 1.0 | 4.0 | 0.00 | 0.07 | 0.00 | 97 | 1004.9 |
| 20260509095155 | 52 | 175 | 0.0 | 4.0 | 0.00 | 0.07 | 0.00 | 96 | 1004.9 |
| 20260509094609 | 52 | 175 | 1.0 | 3.0 | 0.00 | 0.07 | 0.00 | 97 | 1004.9 |
| 20260509094042 | 52 | 175 | 2.0 | 5.0 | 0.00 | 0.07 | 0.00 | 97 | 1004.9 |
| 20260509093521 | 52 | 175 | 2.0 | 5.0 | 0.00 | 0.07 | 0.00 | 97 | 1005.0 |
| 20260509093022 | 52 | 175 | 3.0 | 5.0 | 0.00 | 0.07 | 0.00 | 97 | 1004.9 |
| 20260509092458 | 52 | 175 | 2.0 | 5.0 | 0.00 | 0.07 | 0.00 | 96 | 1005.1 |
| 20260509091944 | 52 | 175 | 2.0 | 4.0 | 0.00 | 0.07 | 0.00 | 96 | 1005.1 |
| 20260509091443 | 52 | 175 | 2.0 | 4.0 | 0.00 | 0.07 | 0.00 | 96 | 1005.2 |
| 20260509090941 | 52 | 175 | 2.0 | 3.0 | 0.00 | 0.07 | 0.00 | 96 | 1005.3 |
| 20260509090706 | 52 | 175 | 1.0 | 3.0 | 0.00 | 0.07 | 0.00 | 96 | 1005.4 |
| 20260509085940 | 52 | 175 | 1.0 | 3.0 | 0.00 | 0.07 | 0.00 | 96 | 1005.3 |
| 20260509085439 | 52 | 175 | 2.0 | 4.0 | 0.00 | 0.07 | 0.00 | 96 | 1005.3 |
| 20260509085155 | 52 | 175 | 2.0 | 4.0 | 0.00 | 0.07 | 0.00 | 96 | 1005.3 |
| 20260509084431 | 52 | 175 | 2.0 | 4.0 | 0.00 | 0.07 | 0.00 | 96 | 1005.3 |
| 20260509083856 | 52 | 175 | 2.0 | 3.0 | 0.00 | 0.07 | 0.00 | 96 | 1005.4 |
| 20260509083332 | 52 | 175 | 2.0 | 3.0 | 0.00 | 0.07 | 0.00 | 96 | 1005.4 |
| 20260509082756 | 52 | 175 | 2.0 | 4.0 | 0.00 | 0.07 | 0.00 | 96 | 1005.4 |
| 20260509082232 | 52 | 175 | 3.0 | 5.0 | 0.00 | 0.07 | 0.00 | 96 | 1005.5 |
| 20260509081726 | 52 | 175 | 3.0 | 4.0 | 0.00 | 0.07 | 0.00 | 96 | 1005.5 |
| 20260509081221 | 52 | 175 | 2.0 | 4.0 | 0.00 | 0.07 | 0.00 | 96 | 1005.5 |
| 20260509080714 | 52 | 175 | 2.0 | 4.0 | 0.00 | 0.07 | 0.00 | 96 | 1005.4 |
| 20260509080213 | 52 | 175 | 2.0 | 4.0 | 0.00 | 0.07 | 0.00 | 96 | 1005.4 |
| 20260509075643 | 52 | 175 | 3.0 | 6.0 | 0.00 | 0.07 | 0.00 | 96 | 1005.3 |
| 20260509075124 | 52 | 175 | 3.0 | 6.0 | 0.00 | 0.07 | 0.00 | 96 | 1005.3 |
| 20260509074611 | 52 | 180 | 2.0 | 5.0 | 0.00 | 0.07 | 0.00 | 96 | 1005.3 |
| 20260509074114 | 52 | 180 | 3.0 | 7.0 | 0.00 | 0.07 | 0.00 | 96 | 1005.3 |
| 20260509073528 | 52 | 179 | 3.0 | 7.0 | 0.00 | 0.07 | 0.00 | 96 | 1005.3 |
| 20260509073001 | 52 | 183 | 3.0 | 6.0 | 0.00 | 0.07 | 0.00 | 96 | 1005.4 |
| 20260509072502 | 52 | 192 | 3.0 | 6.0 | 0.00 | 0.07 | 0.00 | 96 | 1005.6 |
| 20260509072004 | 52 | 187 | 3.0 | 5.0 | 0.00 | 0.07 | 0.00 | 96 | 1005.5 |
| 20260509071455 | 52 | 188 | 3.0 | 4.0 | 0.00 | 0.07 | 0.00 | 96 | 1005.5 |
| 20260509070958 | 52 | 188 | 3.0 | 5.0 | 0.00 | 0.07 | 0.00 | 96 | 1005.6 |
| 20260509070421 | 52 | 190 | 3.0 | 6.0 | 0.00 | 0.07 | 0.00 | 96 | 1005.6 |
| 20260509065848 | 52 | 190 | 3.0 | 6.0 | 0.00 | 0.07 | 0.00 | 96 | 1005.7 |
| 20260509065317 | 52 | 187 | 2.0 | 6.0 | 0.00 | 0.07 | 0.00 | 96 | 1005.6 |
| 20260509064803 | 52 | 188 | 2.0 | 4.0 | 0.00 | 0.07 | 0.00 | 96 | 1005.8 |
| 20260509064306 | 52 | 194 | 3.0 | 9.0 | 0.00 | 0.07 | 0.00 | 96 | 1005.8 |
| 20260509063755 | 52 | 194 | 4.0 | 9.0 | 0.00 | 0.07 | 0.00 | 96 | 1005.8 |
| 20260509063300 | 52 | 181 | 4.0 | 7.0 | 0.00 | 0.07 | 0.00 | 96 | 1005.9 |
| 20260509062749 | 52 | 190 | 3.0 | 7.0 | 0.00 | 0.07 | 0.00 | 96 | 1005.9 |
| 20260509062241 | 52 | 189 | 3.0 | 6.0 | 0.00 | 0.07 | 0.00 | 96 | 1005.9 |
| 20260509061740 | 51 | 190 | 3.0 | 6.0 | 0.00 | 0.07 | 0.00 | 96 | 1005.9 |
| 20260509061235 | 51 | 175 | 3.0 | 5.0 | 0.00 | 0.07 | 0.00 | 96 | 1006.0 |
| 20260509060657 | 51 | 175 | 3.0 | 5.0 | 0.00 | 0.07 | 0.00 | 96 | 1006.1 |
| 20260509060154 | 51 | 175 | 3.0 | 6.0 | 0.00 | 0.07 | 0.00 | 96 | 1006.0 |
| 20260509055656 | 52 | 163 | 3.0 | 6.0 | 0.00 | 0.07 | 0.00 | 96 | 1006.1 |
| 20260509055139 | 52 | 163 | 4.0 | 6.0 | 0.00 | 0.07 | 0.00 | 96 | 1006.1 |
| 20260509054833 | 51 | 175 | 4.0 | 7.0 | 0.00 | 0.07 | 0.00 | 96 | 1006.0 |
| 20260509054055 | 51 | 173 | 3.0 | 6.0 | 0.00 | 0.07 | 0.00 | 96 | 1006.1 |
| 20260509053551 | 51 | 173 | 3.0 | 5.0 | 0.00 | 0.07 | 0.00 | 96 | 1006.3 |
| 20260509053017 | 51 | 173 | 3.0 | 5.0 | 0.00 | 0.07 | 0.00 | 96 | 1006.4 |
| 20260509052509 | 51 | 173 | 3.0 | 6.0 | 0.00 | 0.07 | 0.00 | 96 | 1006.4 |
| 20260509052202 | 51 | 175 | 4.0 | 6.0 | 0.00 | 0.07 | 0.00 | 96 | 1006.4 |
| 20260509051407 | 51 | 175 | 3.0 | 5.0 | 0.00 | 0.07 | 0.00 | 96 | 1006.4 |
| 20260509051125 | 51 | 175 | 3.0 | 6.0 | 0.00 | 0.07 | 0.00 | 96 | 1006.3 |
| 20260509050405 | 51 | 175 | 3.0 | 6.0 | 0.00 | 0.07 | 0.00 | 96 | 1006.4 |
| 20260509045907 | 51 | 175 | 2.0 | 6.0 | 0.00 | 0.07 | 0.00 | 96 | 1006.4 |
| 20260509045635 | 51 | 175 | 3.0 | 4.0 | 0.00 | 0.07 | 0.00 | 96 | 1006.4 |
| 20260509044837 | 51 | 175 | 4.0 | 7.0 | 0.00 | 0.07 | 0.00 | 96 | 1006.5 |
| 20260509044301 | 51 | 173 | 4.0 | 10.0 | 0.00 | 0.07 | 0.00 | 96 | 1006.5 |
| 20260509043729 | 51 | 173 | 4.0 | 10.0 | 0.00 | 0.07 | 0.00 | 96 | 1006.5 |
| 20260509043227 | 51 | 164 | 3.0 | 6.0 | 0.00 | 0.07 | 0.00 | 96 | 1006.6 |
| 20260509042721 | 51 | 163 | 2.0 | 4.0 | 0.00 | 0.07 | 0.00 | 96 | 1006.7 |
| 20260509042223 | 51 | 163 | 3.0 | 7.0 | 0.00 | 0.07 | 0.00 | 96 | 1006.7 |
| 20260509041653 | 51 | 160 | 4.0 | 6.0 | 0.00 | 0.07 | 0.00 | 96 | 1006.8 |
| 20260509041129 | 51 | 156 | 4.0 | 6.0 | 0.00 | 0.07 | 0.00 | 96 | 1006.8 |
| 20260509040625 | 51 | 155 | 3.0 | 5.0 | 0.00 | 0.07 | 0.00 | 96 | 1007.0 |
| 20260509040130 | 51 | 150 | 2.0 | 4.0 | 0.00 | 0.07 | 0.00 | 96 | 1007.0 |
| 20260509035607 | 51 | 150 | 3.0 | 4.0 | 0.00 | 0.07 | 0.07 | 96 | 1007.2 |
| 20260509035029 | 51 | 150 | 3.0 | 5.0 | 0.00 | 0.07 | 0.07 | 96 | 1007.1 |
| 20260509034513 | 51 | 148 | 3.0 | 5.0 | 0.00 | 0.07 | 0.07 | 96 | 1007.2 |
| 20260509033953 | 51 | 147 | 3.0 | 6.0 | 0.00 | 0.07 | 0.07 | 96 | 1007.3 |
| 20260509033449 | 51 | 147 | 4.0 | 6.0 | 0.00 | 0.07 | 0.07 | 96 | 1007.3 |
| 20260509032952 | 51 | 170 | 3.0 | 6.0 | 0.00 | 0.07 | 0.07 | 96 | 1007.3 |
| 20260509032419 | 51 | 167 | 3.0 | 5.0 | 0.00 | 0.07 | 0.07 | 96 | 1007.4 |
| 20260509031849 | 51 | 167 | 1.0 | 5.0 | 0.00 | 0.07 | 0.07 | 96 | 1007.4 |
| 20260509031325 | 51 | 169 | 1.0 | 5.0 | 0.00 | 0.07 | 0.07 | 96 | 1007.6 |
| 20260509031047 | 51 | 168 | 3.0 | 5.0 | 0.00 | 0.07 | 0.07 | 96 | 1007.4 |
| 20260509030310 | 51 | 168 | 2.0 | 5.0 | 0.00 | 0.07 | 0.07 | 96 | 1007.6 |
| 20260509025753 | 51 | 168 | 2.0 | 5.0 | 0.00 | 0.07 | 0.07 | 96 | 1007.4 |
| 20260509025256 | 51 | 168 | 4.0 | 6.0 | 0.00 | 0.07 | 0.07 | 96 | 1007.6 |
| 20260509024746 | 51 | 168 | 4.0 | 7.0 | 0.00 | 0.07 | 0.07 | 96 | 1007.7 |
| 20260509024249 | 51 | 184 | 3.0 | 7.0 | 0.00 | 0.07 | 0.07 | 96 | 1007.7 |
| 20260509023725 | 51 | 200 | 3.0 | 5.0 | 0.00 | 0.07 | 0.07 | 96 | 1007.7 |
| 20260509023223 | 51 | 202 | 3.0 | 5.0 | 0.00 | 0.07 | 0.07 | 96 | 1007.7 |
| 20260509022707 | 51 | 173 | 3.0 | 4.0 | 0.00 | 0.07 | 0.07 | 96 | 1007.7 |
| 20260509022205 | 51 | 173 | 3.0 | 5.0 | 0.00 | 0.07 | 0.07 | 96 | 1007.7 |
| 20260509021705 | 51 | 173 | 3.0 | 7.0 | 0.00 | 0.07 | 0.07 | 96 | 1007.7 |
| 20260509021356 | 51 | 173 | 3.0 | 7.0 | 0.00 | 0.07 | 0.07 | 96 | 1007.6 |
| 20260509020645 | 51 | 178 | 4.0 | 7.0 | 0.00 | 0.07 | 0.07 | 96 | 1007.6 |
| 20260509020119 | 51 | 178 | 3.0 | 7.0 | 0.00 | 0.07 | 0.07 | 96 | 1007.7 |
| 20260509015624 | 51 | 182 | 3.0 | 6.0 | 0.00 | 0.07 | 0.07 | 96 | 1007.7 |
| 20260509015055 | 51 | 182 | 4.0 | 6.0 | 0.00 | 0.07 | 0.07 | 96 | 1007.7 |
| 20260509014555 | 51 | 184 | 4.0 | 7.0 | 0.01 | 0.07 | 0.07 | 96 | 1007.7 |
| 20260509014027 | 51 | 181 | 4.0 | 7.0 | 0.01 | 0.07 | 0.07 | 96 | 1007.7 |
| 20260509013503 | 51 | 176 | 3.0 | 7.0 | 0.01 | 0.07 | 0.07 | 96 | 1007.8 |
| 20260509012959 | 51 | 175 | 3.0 | 7.0 | 0.02 | 0.07 | 0.07 | 96 | 1007.8 |
| 20260509012656 | 51 | 177 | 3.0 | 5.0 | 0.02 | 0.07 | 0.07 | 96 | 1007.8 |
| 20260509011937 | 51 | 178 | 3.0 | 4.0 | 0.03 | 0.07 | 0.07 | 96 | 1007.7 |
| 20260509011630 | 51 | 179 | 2.0 | 4.0 | 0.04 | 0.07 | 0.07 | 95 | 1007.6 |
| 20260509010906 | 51 | 179 | 2.0 | 5.0 | 0.05 | 0.07 | 0.07 | 95 | 1007.7 |
| 20260509010316 | 51 | 179 | 2.0 | 5.0 | 0.05 | 0.07 | 0.07 | 95 | 1007.6 |
| 20260509005742 | 51 | 179 | 2.0 | 4.0 | 0.05 | 0.07 | 0.07 | 95 | 1007.6 |
| 20260509005432 | 51 | 179 | 2.0 | 4.0 | 0.05 | 0.07 | 0.07 | 95 | 1007.6 |
| 20260509004713 | 51 | 179 | 2.0 | 4.0 | 0.06 | 0.07 | 0.07 | 95 | 1007.6 |
| 20260509004151 | 51 | 179 | 1.0 | 3.0 | 0.05 | 0.06 | 0.06 | 94 | 1007.6 |
| 20260509003654 | 51 | 179 | 1.0 | 2.0 | 0.05 | 0.06 | 0.06 | 94 | 1007.7 |
| 20260509003332 | 51 | 179 | 1.0 | 3.0 | 0.05 | 0.05 | 0.05 | 94 | 1007.6 |
| 20260509002520 | 51 | 179 | 0.0 | 3.0 | 0.05 | 0.05 | 0.05 | 94 | 1007.6 |
| 20260509002202 | 51 | 179 | 0.0 | 0.0 | 0.04 | 0.04 | 0.04 | 94 | 1007.6 |
| 20260509001643 | 51 | 179 | 0.0 | 0.0 | 0.03 | 0.03 | 0.03 | 93 | 1007.7 |
| 20260509001049 | 51 | 179 | 0.0 | 0.0 | 0.02 | 0.02 | 0.02 | 93 | 1007.6 |
| 20260509000307 | 51 | 179 | 0.0 | 2.0 | 0.02 | 0.02 | 0.02 | 93 | 1007.6 |
| 20260508235753 | 51 | 179 | 1.0 | 3.0 | 0.02 | 0.02 | 0.02 | 92 | 1007.6 |
| 20260508235205 | 52 | 179 | 1.0 | 4.0 | 0.02 | 0.02 | 0.02 | 92 | 1007.6 |
| 20260508234638 | 52 | 179 | 1.0 | 4.0 | 0.01 | 0.01 | 0.01 | 91 | 1007.7 |
| 20260508234141 | 52 | 179 | 2.0 | 4.0 | 0.01 | 0.01 | 0.01 | 90 | 1007.6 |
| 20260508233609 | 52 | 179 | 2.0 | 5.0 | 0.01 | 0.01 | 0.01 | 90 | 1007.7 |
| 20260508233111 | 53 | 179 | 3.0 | 5.0 | 0.00 | 0.00 | 0.00 | 89 | 1007.7 |
| 20260508232545 | 53 | 178 | 3.0 | 5.0 | 0.00 | 0.00 | 0.00 | 89 | 1007.4 |
| 20260508232041 | 53 | 178 | 2.0 | 5.0 | 0.00 | 0.00 | 0.00 | 88 | 1007.6 |
| 20260508231504 | 53 | 178 | 2.0 | 4.0 | 0.00 | 0.00 | 0.00 | 88 | 1007.6 |
| 20260508231008 | 53 | 178 | 2.0 | 3.0 | 0.00 | 0.00 | 0.00 | 88 | 1007.6 |
| 20260508230703 | 53 | 178 | 1.0 | 4.0 | 0.00 | 0.00 | 0.00 | 87 | 1007.7 |
| 20260508225940 | 54 | 178 | 0.0 | 3.0 | 0.00 | 0.00 | 0.00 | 87 | 1007.7 |
| 20260508225628 | 54 | 178 | 1.0 | 4.0 | 0.00 | 0.00 | 0.00 | 86 | 1007.6 |
| 20260508224815 | 54 | 178 | 1.0 | 4.0 | 0.00 | 0.00 | 0.00 | 85 | 1007.6 |
| 20260508224252 | 54 | 179 | 0.0 | 0.0 | 0.00 | 0.00 | 0.00 | 84 | 1007.7 |
| 20260508223720 | 55 | 179 | 0.0 | 0.0 | 0.00 | 0.00 | 0.00 | 83 | 1007.9 |
| 20260508223158 | 55 | 179 | 0.0 | 0.0 | 0.00 | 0.00 | 0.00 | 82 | 1007.9 |
| 20260508222608 | 55 | 179 | 0.0 | 0.0 | 0.00 | 0.00 | 0.00 | 80 | 1007.8 |
| 20260508222038 | 56 | 179 | 0.0 | 0.0 | 0.00 | 0.00 | 0.00 | 79 | 1007.9 |
| 20260508221541 | 56 | 179 | 1.0 | 5.0 | 0.00 | 0.00 | 0.00 | 78 | 1007.9 |
| 20260508221006 | 56 | 179 | 1.0 | 5.0 | 0.00 | 0.00 | 0.00 | 76 | 1007.9 |
| 20260508220434 | 56 | 178 | 1.0 | 4.0 | 0.00 | 0.00 | 0.00 | 76 | 1007.9 |
| 20260508215915 | 57 | 178 | 0.0 | 3.0 | 0.00 | 0.00 | 0.00 | 76 | 1007.9 |
| 20260508215411 | 57 | 174 | 0.0 | 4.0 | 0.00 | 0.00 | 0.00 | 74 | 1007.8 |
| 20260508215112 | 57 | 173 | 0.0 | 4.0 | 0.00 | 0.00 | 0.00 | 75 | 1007.9 |
| 20260508214354 | 57 | 173 | 1.0 | 7.0 | 0.00 | 0.00 | 0.00 | 74 | 1007.9 |
| 20260508213833 | 58 | 173 | 1.0 | 7.0 | 0.00 | 0.00 | 0.00 | 73 | 1008.1 |
| 20260508213306 | 58 | 276 | 0.0 | 0.0 | 0.00 | 0.00 | 0.00 | 74 | 1008.2 |
| 20260508212732 | 58 | 276 | 0.0 | 0.0 | 0.00 | 0.00 | 0.00 | 73 | 1008.0 |
| 20260508212154 | 58 | 276 | 0.0 | 0.0 | 0.00 | 0.00 | 0.00 | 73 | 1008.1 |
| 20260508211645 | 58 | 276 | 0.0 | 0.0 | 0.00 | 0.00 | 0.00 | 72 | 1008.0 |
| 20260508211140 | 58 | 276 | 0.0 | 0.0 | 0.00 | 0.00 | 0.00 | 73 | 1008.1 |
| 20260508210556 | 58 | 276 | 0.0 | 0.0 | 0.00 | 0.00 | 0.00 | 72 | 1008.1 |
| 20260508210011 | 58 | 276 | 0.0 | 0.0 | 0.00 | 0.00 | 0.00 | 72 | 1008.2 |
| 20260508205431 | 58 | 276 | 0.0 | 0.0 | 0.00 | 0.00 | 0.00 | 73 | 1008.3 |
| 20260508204850 | 58 | 276 | 0.0 | 0.0 | 0.00 | 0.00 | 0.00 | 73 | 1008.2 |
| 20260508204307 | 58 | 275 | 0.0 | 0.0 | 0.00 | 0.00 | 0.00 | 72 | 1008.3 |
| 20260508203723 | 58 | 275 | 0.0 | 0.0 | 0.00 | 0.00 | 0.00 | 72 | 1008.5 |
| 20260508203144 | 58 | 275 | 0.0 | 2.0 | 0.00 | 0.00 | 0.00 | 72 | 1008.6 |
| 20260508202612 | 58 | 275 | 0.0 | 0.0 | 0.00 | 0.00 | 0.00 | 72 | 1008.7 |
| 20260508202046 | 58 | 275 | 0.0 | 0.0 | 0.00 | 0.00 | 0.00 | 71 | 1008.7 |
| 20260508201527 | 58 | 275 | 0.0 | 0.0 | 0.00 | 0.00 | 0.00 | 71 | 1008.5 |
| 20260508200944 | 58 | 275 | 0.0 | 2.0 | 0.00 | 0.00 | 0.00 | 72 | 1008.7 |
| 20260508200440 | 58 | 275 | 0.0 | 2.0 | 0.00 | 0.00 | 0.00 | 71 | 1008.7 |
| 20260508195939 | 58 | 265 | 0.0 | 4.0 | 0.00 | 0.00 | 0.00 | 71 | 1008.7 |
| 20260508195438 | 58 | 262 | 1.0 | 4.0 | 0.00 | 0.00 | 0.00 | 70 | 1008.7 |
| 20260508194942 | 59 | 243 | 1.0 | 3.0 | 0.00 | 0.00 | 0.00 | 69 | 1008.8 |
| 20260508194645 | 59 | 189 | 1.0 | 5.0 | 0.00 | 0.00 | 0.00 | 69 | 1008.7 |
| 20260508193901 | 60 | 302 | 1.0 | 6.0 | 0.00 | 0.00 | 0.00 | 67 | 1008.8 |
| 20260508193345 | 60 | 306 | 1.0 | 6.0 | 0.00 | 0.00 | 0.00 | 68 | 1008.9 |
| 20260508192848 | 60 | 310 | 0.0 | 3.0 | 0.00 | 0.00 | 0.00 | 68 | 1008.9 |
| 20260508192313 | 60 | 310 | 0.0 | 3.0 | 0.00 | 0.00 | 0.00 | 67 | 1008.9 |
| 20260508191742 | 60 | 310 | 1.0 | 5.0 | 0.00 | 0.00 | 0.00 | 68 | 1008.8 |
| 20260508191441 | 59 | 313 | 1.0 | 5.0 | 0.00 | 0.00 | 0.00 | 68 | 1008.8 |
| 20260508190716 | 59 | 265 | 1.0 | 3.0 | 0.00 | 0.00 | 0.00 | 69 | 1008.9 |
| 20260508190220 | 59 | 259 | 1.0 | 4.0 | 0.00 | 0.00 | 0.00 | 71 | 1008.9 |
| 20260508190201 | 58 | 259 | 2.0 | 9.0 | 0.00 | 0.00 | 0.00 | 70 | 1009.0 |
| 20260508185206 | 58 | 322 | 1.0 | 5.0 | 0.00 | 0.00 | 0.00 | 71 | 1009.1 |
| 20260508184652 | 58 | 279 | 1.0 | 4.0 | 0.00 | 0.00 | 0.00 | 72 | 1009.1 |
| 20260508184156 | 58 | 294 | 2.0 | 4.0 | 0.00 | 0.00 | 0.00 | 72 | 1009.1 |
| 20260508183626 | 58 | 292 | 1.0 | 4.0 | 0.00 | 0.00 | 0.00 | 71 | 1009.1 |
| 20260508183050 | 58 | 292 | 1.0 | 5.0 | 0.00 | 0.00 | 0.00 | 71 | 1009.1 |
| 20260508182511 | 58 | 321 | 1.0 | 5.0 | 0.00 | 0.00 | 0.00 | 70 | 1009.3 |
| 20260508182012 | 58 | 296 | 1.0 | 4.0 | 0.00 | 0.00 | 0.00 | 72 | 1009.4 |
| 20260508181433 | 58 | 296 | 1.0 | 5.0 | 0.00 | 0.00 | 0.00 | 73 | 1009.5 |
| 20260508180856 | 58 | 246 | 0.0 | 5.0 | 0.00 | 0.00 | 0.00 | 72 | 1009.6 |
| 20260508180344 | 58 | 331 | 0.0 | 3.0 | 0.00 | 0.00 | 0.00 | 72 | 1009.7 |
| 20260508180035 | 58 | 348 | 1.0 | 4.0 | 0.00 | 0.00 | 0.00 | 72 | 1009.7 |
| 20260508175457 | 58 | 348 | 1.0 | 5.0 | 0.00 | 0.00 | 0.00 | 71 | 1009.8 |
| 20260508174714 | 58 | 306 | 1.0 | 4.0 | 0.00 | 0.00 | 0.00 | 72 | 1009.8 |
| 20260508174358 | 57 | 292 | 1.0 | 4.0 | 0.00 | 0.00 | 0.00 | 72 | 1009.9 |
| 20260508173610 | 58 | 303 | 1.0 | 4.0 | 0.00 | 0.00 | 0.00 | 72 | 1009.9 |
| 20260508173322 | 58 | 301 | 1.0 | 3.0 | 0.00 | 0.00 | 0.00 | 71 | 1010.1 |
| 20260508172532 | 58 | 279 | 0.0 | 5.0 | 0.00 | 0.00 | 0.00 | 72 | 1010.1 |
| 20260508171956 | 57 | 252 | 1.0 | 5.0 | 0.00 | 0.00 | 0.00 | 73 | 1010.1 |
| 20260508171645 | 57 | 242 | 1.0 | 5.0 | 0.00 | 0.00 | 0.00 | 73 | 1009.9 |
| 20260508171116 | 56 | 304 | 0.0 | 4.0 | 0.00 | 0.00 | 0.00 | 74 | 1009.9 |
| 20260508170324 | 56 | 262 | 0.0 | 0.0 | 0.00 | 0.00 | 0.00 | 76 | 1010.0 |
| 20260508165820 | 56 | 232 | 0.0 | 0.0 | 0.00 | 0.00 | 0.00 | 77 | 1010.2 |
| 20260508165512 | 55 | 232 | 0.0 | 0.0 | 0.00 | 0.00 | 0.00 | 78 | 1010.1 |
| 20260508164757 | 54 | 232 | 0.0 | 1.0 | 0.00 | 0.00 | 0.00 | 78 | 1010.3 |
| 20260508164225 | 54 | 231 | 0.0 | 1.0 | 0.00 | 0.00 | 0.00 | 77 | 1010.3 |
| 20260508163723 | 54 | 229 | 0.0 | 3.0 | 0.00 | 0.00 | 0.00 | 77 | 1010.3 |
| 20260508163409 | 54 | 288 | 0.0 | 6.0 | 0.00 | 0.00 | 0.00 | 77 | 1010.3 |
| 20260508162607 | 54 | 323 | 0.0 | 0.0 | 0.00 | 0.00 | 0.00 | 78 | 1010.3 |
| 20260508162058 | 53 | 323 | 0.0 | 1.0 | 0.00 | 0.00 | 0.00 | 78 | 1010.3 |
| 20260508161748 | 53 | 323 | 0.0 | 3.0 | 0.00 | 0.00 | 0.00 | 79 | 1010.3 |
| 20260508160958 | 53 | 323 | 0.0 | 3.0 | 0.00 | 0.00 | 0.00 | 79 | 1010.3 |
| 20260508160428 | 53 | 319 | 0.0 | 6.0 | 0.00 | 0.00 | 0.00 | 78 | 1010.4 |
| 20260508155917 | 53 | 319 | 1.0 | 6.0 | 0.00 | 0.00 | 0.00 | 79 | 1010.5 |
| 20260508155344 | 53 | 317 | 1.0 | 4.0 | 0.00 | 0.00 | 0.00 | 78 | 1010.6 |
| 20260508154806 | 53 | 323 | 1.0 | 4.0 | 0.00 | 0.00 | 0.00 | 78 | 1010.6 |
| 20260508154227 | 52 | 324 | 1.0 | 4.0 | 0.00 | 0.00 | 0.00 | 77 | 1010.6 |
| 20260508153714 | 52 | 324 | 0.0 | 3.0 | 0.00 | 0.00 | 0.00 | 77 | 1010.6 |
| 20260508153216 | 53 | 265 | 0.0 | 4.0 | 0.00 | 0.00 | 0.00 | 77 | 1010.5 |
| 20260508152914 | 53 | 257 | 0.0 | 4.0 | 0.00 | 0.00 | 0.00 | 77 | 1010.5 |
| 20260508152158 | 53 | 235 | 1.0 | 4.0 | 0.00 | 0.00 | 0.00 | 77 | 1010.5 |
| 20260508151640 | 53 | 269 | 0.0 | 3.0 | 0.00 | 0.00 | 0.00 | 77 | 1010.5 |
| 20260508151110 | 53 | 268 | 0.0 | 3.0 | 0.00 | 0.00 | 0.00 | 77 | 1010.5 |